TimePDT,TemperatureF,Dew PointF,Humidity,Sea Level PressureIn,VisibilityMPH,Wind Direction,Wind SpeedMPH,Gust SpeedMPH,PrecipitationIn,Events,Conditions,WindDirDegrees,DateUTC
12:53 AM,48.0,28.9,48,30.16,-9999.0,South,6.9,-,N/A,,Unknown,180,2012-10-01 07:53:00
1:53 AM,46.0,28.0,50,30.17,-9999.0,SSE,5.8,-,N/A,,Unknown,160,2012-10-01 08:53:00
2:53 AM,46.9,28.0,48,30.16,-9999.0,South,8.1,-,N/A,,Unknown,190,2012-10-01 09:53:00
3:53 AM,46.0,28.0,50,30.17,-9999.0,South,5.8,-,N/A,,Unknown,180,2012-10-01 10:53:00
4:53 AM,46.0,28.0,50,30.17,-9999.0,SSW,10.4,-,N/A,,Unknown,210,2012-10-01 11:53:00
5:53 AM,41.0,27.0,57,30.20,-9999.0,South,5.8,-,N/A,,Unknown,190,2012-10-01 12:53:00
6:53 AM,44.1,27.0,51,30.25,-9999.0,SSW,6.9,-,N/A,,Unknown,200,2012-10-01 13:53:00
7:53 AM,50.0,28.9,44,30.25,-9999.0,SSW,4.6,-,N/A,,Unknown,210,2012-10-01 14:53:00
8:53 AM,59.0,28.9,32,30.25,-9999.0,SSW,4.6,-,N/A,,Unknown,200,2012-10-01 15:53:00
9:53 AM,66.9,25.0,21,30.23,-9999.0,Calm,Calm,-,N/A,,Unknown,0,2012-10-01 16:53:00
10:53 AM,70.0,26.1,19,30.21,-9999.0,NE,3.5,-,N/A,,Unknown,50,2012-10-01 17:53:00
11:53 AM,73.9,25.0,16,30.17,-9999.0,NW,4.6,-,N/A,,Unknown,310,2012-10-01 18:53:00
12:53 PM,75.9,26.1,16,30.16,-9999.0,Calm,Calm,-,N/A,,Unknown,0,2012-10-01 19:53:00
1:53 PM,79.0,23.0,13,30.12,-9999.0,NNE,5.8,-,N/A,,Unknown,30,2012-10-01 20:53:00
2:53 PM,80.1,24.1,13,30.09,-9999.0,ENE,8.1,-,N/A,,Unknown,60,2012-10-01 21:53:00
3:53 PM,81.0,24.1,12,30.07,-9999.0,NNW,6.9,-,N/A,,Unknown,340,2012-10-01 22:53:00
4:53 PM,79.0,24.1,13,30.06,-9999.0,ENE,4.6,-,N/A,,Unknown,70,2012-10-01 23:53:00
5:53 PM,75.9,28.9,18,30.08,-9999.0,ENE,5.8,-,N/A,,Unknown,60,2012-10-02 00:53:00
6:53 PM,64.9,25.0,22,30.11,-9999.0,North,3.5,-,N/A,,Unknown,350,2012-10-02 01:53:00
7:53 PM,57.0,28.9,34,30.13,-9999.0,South,6.9,-,N/A,,Unknown,190,2012-10-02 02:53:00
8:53 PM,54.0,28.9,38,30.11,-9999.0,South,5.8,-,N/A,,Unknown,190,2012-10-02 03:53:00
9:53 PM,50.0,28.9,44,30.10,-9999.0,South,4.6,-,N/A,,Unknown,170,2012-10-02 04:53:00
10:53 PM,50.0,28.0,43,30.08,-9999.0,South,4.6,-,N/A,,Unknown,180,2012-10-02 05:53:00
11:53 PM,48.0,28.9,48,30.06,-9999.0,South,6.9,-,N/A,,Unknown,180,2012-10-02 06:53:00